Regional Weather Roundup
Issued by NWS

Home | Current Version | Previous Version | Graphics & Text | Print | Product List | Glossary Off
Versions: 1 2 3 4 5 6 7 8 9 10 11 12 13 14 15 16 17 18 19 20 21 22 23 24 25 26 27 28 29 30 31 32 33 34 35 36 37 38 39 40 41 42 43 44 45 46 47 48 49 50

000
ASUS43 KMKX 252021
RWRWI

WISCONSIN REGIONAL WEATHER ROUNDUP
NATIONAL WEATHER SERVICE MILWAUKEE/SULLIVAN WI
200 PM CST TUE NOV 25 2014

NOTE: "FAIR" INDICATES FEW OR NO CLOUDS BELOW 12,000 FEET WITH NO
SIGNIFICANT WEATHER AND/OR OBSTRUCTIONS TO VISIBILITY.

WIZ001-002-006>008-014>016-023>028-252100-
NORTHWEST WISCONSIN

CITY           SKY/WX    TMP DP  RH WIND       PRES   REMARKS
SUPERIOR ARPT  CLOUDY    22  12  65 SW9       30.01S WCI  12
ASHLAND        SUNNY     21  14  74 S9        30.01F WCI  11
HAYWARD        PTSUNNY   18  12  77 SW6       30.00S WCI  10
SIREN          CLOUDY    19  11  72 SW6       30.03R WCI  10
CUMBERLAND     CLOUDY    19  10  68 SW7       30.00F WCI  10
RICE LAKE      CLOUDY    19  11  70 S5        30.03F WCI  13
CHETEK         CLOUDY    19  11  70 SW5       30.03F WCI  12
LADYSMITH      SUNNY     21  13  68 S3        30.03S
EAU CLAIRE     PTSUNNY   20  11  68 SW6       30.05S WCI  12
MENOMONIE      CLOUDY    23  13  64 CALM      30.05F
NEW RICHMOND   CLOUDY    21  12  70 SW5       30.03S WCI  14
OSCEOLA        CLOUDY    20  13  74 CALM      30.06F
$$

WIZ003>005-009-010-017-018-252100-
NORTH CENTRAL WISCONSIN

CITY           SKY/WX    TMP DP  RH WIND       PRES   REMARKS
MANITOWISH WTR SUNNY     17  10  73 CALM      29.95S
ARBOR VITAE    FLURRIES  20  12  73 SW5       29.96R WCI  13
WOODRUFF       FLURRIES  20  12  73 SW5       29.96R WCI  13
RHINELANDER    CLOUDY    19  11  70 W6        29.97R WCI  11
EAGLE RIVER    SUNNY     19   8  64 W9        29.94S WCI   7
LAND O LAKES   PTSUNNY   22  11  63 W6        29.95R WCI  15
PHILLIPS       MOSUNNY   18  11  74 CALM      29.97F
TOMAHAWK       PTSUNNY   18  11  76 CALM      29.99S
MEDFORD        SUNNY     19  11  70 SW5       29.99S WCI  13
MERRILL        MOSUNNY   20  12  71 SW6       30.00R WCI  12
$$

WIZ029-030-035-036-043>047-252100-
CENTRAL WISCONSIN

CITY           SKY/WX    TMP DP  RH WIND       PRES   REMARKS
WAUSAU         PTSUNNY   18  12  77 W10       30.01R WCI   6
MOSINEE        PTSUNNY   19  16  86 W9        30.02R WCI   9
MARSHFIELD     SUNNY     20  11  68 W7        30.02R WCI  11
STEVENS POINT  MOSUNNY   18  12  76 NW5       30.03S WCI  11
WAUPACA        CLOUDY    25  16  68 W7        30.05R WCI  17
WAUTOMA        CLOUDY    22  15  74 W9        30.06R WCI  12
WISC RAPIDS    PTSUNNY   20  13  74 SW8       30.06R WCI  10
CAMP DOUGLAS   MOSUNNY   21  18  86 NW7       30.06R WCI  13
$$

WIZ011>013-019>022-031-037>040-048>050-252100-
NORTHEAST WISCONSIN

CITY           SKY/WX    TMP DP  RH WIND       PRES   REMARKS
ANTIGO         CLOUDY    21  13  73 W6        29.98R WCI  13
SHAWANO        CLOUDY    26  17  71 W6        30.03R WCI  19
OCONTO         CLOUDY    25  19  77 W10       30.02R WCI  14
STURGEON BAY   CLOUDY    25  16  68 W8        30.01R WCI  16
GREEN BAY      CLOUDY    24  16  71 W13       30.03R WCI  12
MANITOWOC      CLOUDY    25  19  78 W13       30.05R WCI  14
APPLETON       CLOUDY    21  18  86 W7        30.03R WCI  13
CLINTONVILLE   CLOUDY    23  18  80 W10       30.03R WCI  12
OSHKOSH        CLOUDY    22  15  75 W7        30.05R WCI  13
$$

WIZ032>034-041-042-053>061-252100-
SOUTHWEST WISCONSIN

CITY           SKY/WX    TMP DP  RH WIND       PRES   REMARKS
LA CROSSE      SUNNY     27  13  55 CALM      30.09R
SPARTA         SUNNY     24  15  69 W7        30.08S WCI  15
VIROQUA        SUNNY     22  14  72 SW7       30.05R WCI  13
BOSCOBEL       SUNNY     25  15  66 SW8       30.10R WCI  16
PRAIRIE DU CHI SUNNY     24  13  63 SW6       30.11R WCI  17
PLATTEVILLE    SUNNY     24  17  74 W12       30.08S WCI  13
$$

WIZ056-057-062-063-064-067-068-252100-
SOUTH CENTRAL WISCONSIN

CITY           SKY/WX    TMP DP  RH WIND       PRES   REMARKS
REEDSBURG      CLOUDY    21  16  79 SW7       30.07R WCI  13
BARABOO/DELLS  PTSUNNY   21  15  76 W6        30.06R WCI  14
LONE ROCK      MOSUNNY   27  15  61 W7        30.09R WCI  19
MINERAL POINT  SUNNY     25  16  68 W8        30.06S WCI  16
MADISON        CLOUDY    22  16  78 W7        30.07R WCI  13
MIDDLETON      CLOUDY    25  17  72 W7        30.07R WCI  17
WATERTOWN      CLOUDY    21  17  83 W8        30.07R WCI  12
MONROE         MOSUNNY   23  18  80 W10       30.07R WCI  12
JANESVILLE     CLOUDY    23  18  80 SW10      30.08R WCI  12
$$

WIZ051-052-058>065-066-070>072-252100-
SOUTHEAST WISCONSIN

CITY           SKY/WX    TMP DP  RH WIND       PRES   REMARKS
MILWAUKEE      CLOUDY    25  17  72 W9        30.07R WCI  15
WAUKESHA       CLOUDY    21  16  79 W10       30.07  WCI  10
MILWAUKEE/TIMM CLOUDY    25  16  68 W10       30.07R WCI  15
RACINE         PTSUNNY   25  17  72 W8        30.10R WCI  16
BURLINGTON     CLOUDY    22  16  78 W10       30.09R WCI  11
KENOSHA        MOSUNNY   24  18  77 W10       30.08R WCI  14
FOND DU LAC    MIX PCPN  22  15  75 W7        30.05R WCI  13
SHEBOYGAN      CLOUDY    22  15  75 W12       30.05R WCI  10
WEST BEND      CLOUDY    21  18  86 W10G16    30.05R WCI  10
JUNEAU         CLOUDY    21  15  79 W6        30.07R WCI  13
$$

LSZ147-162-252100-
LAKE SUPERIOR

STATION/POSITION TIME  TEMP    WIND        PRES    WAVE
                       AIR SEA DIR/SP/G            HT/PER
                 (UTC) (F)     (DEG/KT/KT) (MB)    (FT/S)
DEVILS ISLAND    2000   22     220/  9/ 12 1016.7F
PORT WING        1900   22     200/  8/ 11 1016.3F
SAXON HARBOR     1900   21     200/  8/ 10 1016.6F
$$

LMZ867-665-643>646-252100-
LAKE MICHIGAN

STATION/POSITION TIME  TEMP    WIND        PRES    WAVE
                       AIR SEA DIR/SP/G            HT/PER
                 (UTC) (F)     (DEG/KT/KT) (MB)    (FT/S)
CHAMBERS ISLAND  1900   26     280/  7/ 14 1015.6R
N MID LAKE BUOY  1950   29 42  290/ 14/ 17 1015.8R   3/ 5
NORTHPORT PIER   2000   27     280/  5/ 15 1015.9R
SISTER BAY       1758          320/ 13/ 14   N/A
KEWAUNEE LAKESHO 1900   23     270/ 11/ 15 1015.2R
SHEBOYGAN LAKESH 2000   23 36  280/ 10/ 12 1019.2R
PORT WASHINGTON  1900   25     280/  8/ 13 1018.6R
MILWAUKEE LAKESH 2000   24     300/ 10/ 12   N/A
S MID LAKE BUOY  1950   27 42  260/ 10/ 16 1019.4R   4/ 6
KENOSHA   LAKESH 2000   26     260/  9/ 15 1019.0R
$$

TC  - TEMPERATURE IN CELSIUS
VSB - VISIBILITY IN STATUTE MILES
WCI - WIND CHILL INDEX
HX  - HEAT INDEX




USA.gov is the U.S. government's official web portal to all federal, state and local government web resources and services.